User: anonymous   Login
Location: Caltech
(34.1382°N, 118.1253°W)
Time: 14:52:16
(UTC-07:00)
Language:

Iridium 70 - Orbit

View from above orbital plane
View from above orbital plane
View from above satellite
View from above satellite

Ground track
Ground track

The orbit data is extracted from the following two-line orbital elements,

1 25342U 98032A   17266.26190196  .00000019  00000-0 -24923-6 0  9991
2 25342  86.4025 183.2845 0002313  77.0848  76.8290 14.34215959 13152
Epoch (UTC): 23 September 2017 06:17:08
Eccentricity: 0.0002313
inclination: 86.4025°
perigee height: 776 km
apogee height: 779 km
right ascension of ascending node: 183.2845°
argument of perigee: 77.0848°
revolutions per day: 14.34215959
mean anomaly at epoch: 76.8290°
orbit number at epoch: 1315

The dashed part of the orbit path shows where the satellite is in the earth's shadow,  

DLR